Paducah, KY

9:22 AM CDT on March 30, 2017 (GMT -0500)
Barkley Regional

Weather History for KPAH - October, 2010

Change the Weather History Date:

Tuesday, October 26, 2010

  Actual Average Record
Temperature  
Mean Temperature 65 °F 56 °F  
Max Temperature 76 °F 68 °F 86 °F (1944)
Min Temperature 54 °F 44 °F 28 °F (1968)
Degree Days  
Heating Degree Days 0 10  
Month to date heating degree days 115 175  
Since 1 July heating degree days 129 214  
Cooling Degree Days 0 1  
Month to date cooling degree days 31 37  
Year to date cooling degree days 2011 1537  
Growing Degree Days 15 (Base 50)    
Moisture  
Dew Point 56 °F    
Average Humidity 67    
Maximum Humidity 93    
Minimum Humidity 40    
Precipitation  
Precipitation 0.46 in 0.12 in 1.34 in (1953)
Month to date precipitation 0.77 3.35  
Year to date precipitation 29.51 39.58  
Snow  
Snow 0.00 in 0.00 in T in (1957)
Month to date snowfall 0.0 0.1  
Since 1 July snowfall 0.0 0.1  
Since 1 September snowfall 0.0 0.1  
Snow Depth 0.00 in    
Sea Level Pressure  
Sea Level Pressure 29.52 in    
Wind  
Wind Speed 12 mph (SW)    
Max Wind Speed 35 mph    
Max Gust Speed 45 mph    
Visibility 8 miles    
Events Rain    
T = Trace of Precipitation, MM = Missing Value Source: NWS Daily Summary

Daily Weather History Graph

Daily Weather History Graph

Search for Another Location

Airport or City:

Trip Planner

Search our weather history database for the weather conditions in past years. The results will help you decide how hot, cold, wet, or windy it might be!

Date:

Astronomy

Oct. 26, 2010 Rise Set
Actual Time 7:13 AM CDT 6:04 PM CDT
Civil Twilight 6:46 AM CDT 6:30 PM CDT
Nautical Twilight 6:16 AM CDT 7:01 PM CDT
Astronomical Twilight 5:45 AM CDT 7:31 PM CDT
Moon 8:31 PM CDT (10/26) 10:48 AM CDT (10/26)
Length of Visible Light 11h 44m
Length of Day
10h 51m
Waning Gibbous, 87% of the Moon is Illuminated
Oct 26
Waning Gibbous
Oct 30
Last Quarter
Nov 5
New
Nov 13
First Quarter
Nov 21
Full

Hourly Weather History & Observations

Time (CDT) Temp. Dew Point Humidity Pressure Visibility Wind Dir Wind Speed Gust Speed Precip Events Conditions
12:53 AM 72.0 °F 63.0 °F 73% 29.42 in 10.0 mi South 13.8 mph 24.2 mph N/A   Clear
1:53 AM 75.0 °F 63.0 °F 66% 29.39 in 10.0 mi South 11.5 mph 29.9 mph N/A   Partly Cloudy
2:53 AM 73.9 °F 63.0 °F 68% 29.38 in 10.0 mi SSW 12.7 mph 28.8 mph N/A   Clear
3:53 AM 73.9 °F 63.0 °F 68% 29.36 in 10.0 mi South 16.1 mph 31.1 mph N/A   Mostly Cloudy
4:53 AM 75.0 °F 63.0 °F 66% 29.35 in 10.0 mi SSW 15.0 mph 27.6 mph N/A   Overcast
5:53 AM 73.9 °F 64.0 °F 71% 29.34 in 10.0 mi South 11.5 mph 21.9 mph 0.00 in   Mostly Cloudy
6:53 AM 75.9 °F 64.0 °F 67% 29.33 in 10.0 mi SSW 19.6 mph 33.4 mph N/A   Mostly Cloudy
7:26 AM 64.4 °F 60.8 °F 88% 29.40 in 2.5 mi West 21.9 mph 44.9 mph 0.01 in Rain Heavy Rain
7:34 AM 62.6 °F 60.8 °F 94% 29.41 in 1.8 mi West 17.3 mph 31.1 mph 0.17 in Rain Rain
7:42 AM 62.6 °F 60.8 °F 94% 29.42 in 2.5 mi WNW 16.1 mph 26.5 mph 0.23 in Rain Rain
7:48 AM 62.6 °F 57.2 °F 82% 29.43 in 4.0 mi West 25.3 mph 33.4 mph 0.23 in Rain Light Rain
7:53 AM 61.0 °F 57.0 °F 87% 29.43 in 4.0 mi West 26.5 mph 38.0 mph 0.24 in Rain Light Rain
8:08 AM 59.0 °F 53.6 °F 82% 29.47 in 9.0 mi West 23.0 mph 31.1 mph 0.00 in Rain Light Rain
8:53 AM 57.0 °F 53.1 °F 87% 29.51 in 4.0 mi WSW 16.1 mph 21.9 mph 0.06 in Rain Rain
9:53 AM 55.9 °F 52.0 °F 87% 29.52 in 10.0 mi SW 11.5 mph - 0.12 in Rain Light Rain
10:53 AM 55.9 °F 53.1 °F 90% 29.53 in 10.0 mi SSW 5.8 mph - 0.04 in Rain Light Rain
11:53 AM 59.0 °F 54.0 °F 83% 29.55 in 10.0 mi SSW 10.4 mph - 0.00 in   Partly Cloudy
12:53 PM 62.1 °F 54.0 °F 75% 29.56 in 10.0 mi SSW 10.4 mph - N/A   Mostly Cloudy
1:53 PM 66.0 °F 54.0 °F 65% 29.55 in 10.0 mi SW 12.7 mph 24.2 mph N/A   Partly Cloudy
2:53 PM 68.0 °F 53.6 °F 60% 29.56 in 10.0 mi SW 9.2 mph 19.6 mph N/A   Partly Cloudy
3:53 PM 68.0 °F 44.1 °F 42% 29.57 in 10.0 mi WSW 23.0 mph 28.8 mph N/A   Clear
4:53 PM 66.9 °F 41.0 °F 39% 29.59 in 10.0 mi SW 15.0 mph 23.0 mph N/A   Clear
5:53 PM 64.0 °F 42.1 °F 45% 29.60 in 10.0 mi SW 9.2 mph - N/A   Clear
6:53 PM 60.1 °F 53.1 °F 78% 29.65 in 10.0 mi SSW 5.8 mph - N/A   Clear
7:53 PM 57.9 °F 54.0 °F 87% 29.68 in 10.0 mi South 5.8 mph - N/A   Clear
8:53 PM 57.0 °F 53.1 °F 87% 29.71 in 10.0 mi SSW 9.2 mph - N/A   Clear
9:53 PM 55.9 °F 53.1 °F 90% 29.74 in 10.0 mi SW 5.8 mph - N/A   Clear
10:53 PM 55.0 °F 52.0 °F 89% 29.76 in 10.0 mi SSW 6.9 mph - N/A   Clear
11:53 PM 55.0 °F 52.0 °F 89% 29.78 in 10.0 mi SSW 8.1 mph - N/A   Clear